• Join FlightAware (Why Join?)
  • Login
  • US Flag 
10:41AM EST


 

Airport Tracker/Info


-or-


 

Live Flight TrackerFlight Track Log ✈ TAM3749 ✈ 03-Nov-2013 ✈ SBEG / MAO - SBGR / GRU

Flight Track Log - Related Links

Times and Time Zones

All times are in EST time to prevent confusion due to time zone crossing. See the TAM3749 flight status page for this flight to view local times or setup timezone preferences in your user account.

Time Position Orientation Groundspeed Altitude Reporting Facility
EST Latitude Longitude Course Direction KTS MPH feet Rate Location/Type
02:48PM -3.0400 -60.0090 91° East 153 176 2,200  Level FlightAware
02:49PM -3.0470 -59.9900 110° East 164 189 2,900 1,412 Climbing FlightAware
02:49PM -3.0620 -59.9820 152° Southeast 166 191 3,400 1,224 Climbing FlightAware
02:50PM -3.0810 -59.9730 155° Southeast 184 212 3,900 931 Climbing FlightAware
02:50PM -3.1090 -59.9600 155° Southeast 226 260 4,300 1,000 Climbing FlightAware
02:51PM -3.1520 -59.9390 154° Southeast 275 316 5,100 2,077 Climbing FlightAware
02:52PM -3.1960 -59.9170 153° Southeast 276 318 7,000 2,750 Climbing FlightAware
02:52PM -3.2350 -59.8980 154° Southeast 282 325 8,400 2,438 Climbing FlightAware
02:53PM -3.2700 -59.8810 154° Southeast 291 335 9,600 2,286 Climbing FlightAware
02:53PM -3.3130 -59.8600 154° Southeast 305 351 10,800 1,837 Climbing FlightAware
02:54PM -3.4010 -59.8170 154° Southeast 341 392 12,600 1,828 Climbing FlightAware
02:55PM -3.4940 -59.7720 154° Southeast 358 412 14,700 1,895 Climbing FlightAware
02:56PM -3.5440 -59.7610 168° South 366 421 15,600 1,647 Climbing FlightAware
02:57PM -3.6670 -59.7400 170° South 387 445 17,500 1,514 Climbing FlightAware
02:58PM -3.7400 -59.7270 170° South 400 460 18,400 1,571 Climbing FlightAware
02:58PM -3.8200 -59.7130 170° South 404 465 19,700 1,737 Climbing FlightAware
02:59PM -3.8780 -59.7020 169° South 406 467 20,600 811 Climbing FlightAware
03:00PM -3.9460 -59.6890 169° South 406 467 20,700 77 Climbing FlightAware
03:00PM -4.0020 -59.6780 169° South 406 467 20,700  Level FlightAware
03:01PM -4.0580 -59.6670 169° South 406 467 20,700  Level FlightAware
03:01PM -4.0960 -59.6600 170° South 406 467 20,700  Level FlightAware
03:02PM -4.1540 -59.6490 169° South 406 467 20,700  Level FlightAware
03:02PM -4.2100 -59.6380 169° South 406 467 20,700  Level FlightAware
03:03PM -4.2480 -59.6300 168° South 406 467 20,700 133 Level FlightAware
03:06PM -4.4950 -59.4734 148° Southeast  Level Estimated
03:07PM -4.5882 -59.4142 148° Southeast  Level Estimated
03:08PM -4.6813 -59.3550 148° Southeast  Level Estimated
03:09PM -4.7745 -59.2959 148° Southeast  Level Estimated
03:10PM -4.8677 -59.2367 148° Southeast  Level Estimated
03:11PM -4.9609 -59.1775 148° Southeast  Level Estimated
03:12PM -5.0540 -59.1183 148° Southeast  Level Estimated
03:13PM -5.1472 -59.0590 148° Southeast  Level Estimated
03:14PM -5.2403 -58.9998 148° Southeast  Level Estimated
03:15PM -5.3335 -58.9405 148° Southeast  Level Estimated
03:16PM -5.4266 -58.8812 148° Southeast  Level Estimated
03:17PM -5.5198 -58.8219 148° Southeast  Level Estimated
03:18PM -5.6129 -58.7626 148° Southeast  Level Estimated
03:19PM -5.7060 -58.7032 148° Southeast  Level Estimated
03:20PM -5.7991 -58.6438 148° Southeast  Level Estimated
03:21PM -5.8922 -58.5844 148° Southeast  Level Estimated
03:22PM -5.9854 -58.5250 148° Southeast  Level Estimated
03:23PM -6.0785 -58.4656 148° Southeast  Level Estimated
03:24PM -6.1715 -58.4062 148° Southeast  Level Estimated
03:25PM -6.2646 -58.3467 148° Southeast  Level Estimated
03:26PM -6.3577 -58.2872 148° Southeast  Level Estimated
03:27PM -6.4508 -58.2277 148° Southeast  Level Estimated
03:28PM -6.5438 -58.1682 148° Southeast  Level Estimated
03:29PM -6.6369 -58.1086 148° Southeast  Level Estimated
03:30PM -6.7300 -58.0490 148° Southeast  Level Estimated
03:31PM -6.8230 -57.9894 148° Southeast  Level Estimated
03:32PM -6.9160 -57.9298 148° Southeast  Level Estimated
03:33PM -7.0091 -57.8702 148° Southeast  Level Estimated
03:34PM -7.1021 -57.8105 148° Southeast  Level Estimated
03:35PM -7.1951 -57.7508 148° Southeast  Level Estimated
03:36PM -7.2881 -57.6911 148° Southeast  Level Estimated
03:37PM -7.3811 -57.6313 148° Southeast  Level Estimated
03:38PM -7.4741 -57.5716 147° Southeast  Level Estimated
03:39PM -7.5671 -57.5118 147° Southeast  Level Estimated
03:40PM -7.6601 -57.4520 147° Southeast  Level Estimated
03:41PM -7.7530 -57.3921 147° Southeast  Level Estimated
03:42PM -7.8460 -57.3322 147° Southeast  Level Estimated
03:43PM -7.9389 -57.2723 147° Southeast  Level Estimated
03:44PM -8.0319 -57.2124 147° Southeast  Level Estimated
03:45PM -8.1248 -57.1525 147° Southeast  Level Estimated
03:46PM -8.2177 -57.0925 147° Southeast  Level Estimated
03:47PM -8.3106 -57.0325 147° Southeast  Level Estimated
03:48PM -8.3995 -56.9750 147° Southeast  Level Estimated
03:49PM -8.4884 -56.9176 147° Southeast  Level Estimated
03:50PM -8.5772 -56.8601 147° Southeast  Level Estimated
03:51PM -8.6661 -56.8026 147° Southeast  Level Estimated
03:52PM -8.7549 -56.7451 147° Southeast  Level Estimated
03:53PM -8.8437 -56.6875 147° Southeast  Level Estimated
03:54PM -8.9325 -56.6299 147° Southeast  Level Estimated
03:55PM -9.0213 -56.5723 147° Southeast  Level Estimated
03:56PM -9.1102 -56.5146 147° Southeast  Level Estimated
03:57PM -9.1989 -56.4570 147° Southeast  Level Estimated
03:58PM -9.2877 -56.3993 147° Southeast  Level Estimated
03:59PM -9.3765 -56.3415 147° Southeast  Level Estimated
04:00PM -9.4653 -56.2838 147° Southeast  Level Estimated
04:01PM -9.5540 -56.2260 147° Southeast  Level Estimated
04:02PM -9.6427 -56.1682 147° Southeast  Level Estimated
04:03PM -9.7315 -56.1103 147° Southeast  Level Estimated
04:04PM -9.8202 -56.0524 147° Southeast  Level Estimated
04:05PM -9.9089 -55.9945 147° Southeast  Level Estimated
04:06PM -9.9976 -55.9366 147° Southeast  Level Estimated
04:07PM -10.0863 -55.8786 147° Southeast  Level Estimated
04:08PM -10.1750 -55.8206 147° Southeast  Level Estimated
04:09PM -10.2636 -55.7625 147° Southeast  Level Estimated
04:10PM -10.3523 -55.7045 147° Southeast  Level Estimated
04:11PM -10.4410 -55.6464 147° Southeast  Level Estimated
04:12PM -10.5296 -55.5882 147° Southeast  Level Estimated
04:13PM -10.6182 -55.5300 147° Southeast  Level Estimated
04:14PM -10.7068 -55.4718 147° Southeast  Level Estimated
04:15PM -10.7955 -55.4136 147° Southeast  Level Estimated
04:16PM -10.8841 -55.3553 147° Southeast  Level Estimated
04:17PM -10.9726 -55.2970 147° Southeast  Level Estimated
04:18PM -11.0612 -55.2387 147° Southeast  Level Estimated
04:19PM -11.1498 -55.1803 147° Southeast  Level Estimated
04:20PM -11.2383 -55.1219 147° Southeast  Level Estimated
04:21PM -11.3269 -55.0634 147° Southeast  Level Estimated
04:22PM -11.4154 -55.0049 147° Southeast  Level Estimated
04:23PM -11.5039 -54.9464 147° Southeast  Level Estimated
04:24PM -11.5924 -54.8878 147° Southeast  Level Estimated
04:25PM -11.6809 -54.8292 147° Southeast  Level Estimated
04:26PM -11.7694 -54.7706 147° Southeast  Level Estimated
04:27PM -11.8579 -54.7119 147° Southeast  Level Estimated
04:28PM -11.9463 -54.6532 147° Southeast  Level Estimated
04:29PM -12.0348 -54.5945 147° Southeast  Level Estimated
04:30PM -12.1232 -54.5357 147° Southeast  Level Estimated
04:31PM -12.2116 -54.4768 147° Southeast  Level Estimated
04:32PM -12.3001 -54.4180 147° Southeast  Level Estimated
04:33PM -12.3885 -54.3591 147° Southeast  Level Estimated
04:34PM -12.4768 -54.3001 147° Southeast  Level Estimated
04:35PM -12.5652 -54.2411 147° Southeast  Level Estimated
04:36PM -12.6536 -54.1821 147° Southeast  Level Estimated
04:37PM -12.7419 -54.1230 147° Southeast  Level Estimated
04:38PM -12.8302 -54.0639 147° Southeast  Level Estimated
04:39PM -12.9186 -54.0048 147° Southeast  Level Estimated
04:40PM -13.0069 -53.9456 147° Southeast  Level Estimated
04:41PM -13.0952 -53.8863 147° Southeast  Level Estimated
04:42PM -13.1834 -53.8270 147° Southeast  Level Estimated
04:43PM -13.2717 -53.7677 147° Southeast  Level Estimated
04:44PM -13.3600 -53.7084 147° Southeast  Level Estimated
04:45PM -13.4482 -53.6490 147° Southeast  Level Estimated
04:46PM -13.5364 -53.5895 147° Southeast  Level Estimated
04:47PM -13.6246 -53.5300 147° Southeast  Level Estimated
04:48PM -13.7128 -53.4705 147° Southeast  Level Estimated
04:49PM -13.8010 -53.4109 147° Southeast  Level Estimated
04:50PM -13.8892 -53.3513 147° Southeast  Level Estimated
04:51PM -13.9773 -53.2916 147° Southeast  Level Estimated
04:52PM -14.0655 -53.2319 147° Southeast  Level Estimated
04:53PM -14.1536 -53.1721 147° Southeast  Level Estimated
04:54PM -14.2417 -53.1123 147° Southeast  Level Estimated
04:55PM -14.3298 -53.0524 147° Southeast  Level Estimated
04:56PM -14.4179 -52.9925 147° Southeast  Level Estimated
04:57PM -14.5059 -52.9326 147° Southeast  Level Estimated
04:58PM -14.5940 -52.8726 147° Southeast  Level Estimated
04:59PM -14.6820 -52.8125 147° Southeast  Level Estimated
05:00PM -14.7700 -52.7524 147° Southeast  Level Estimated
05:01PM -14.8580 -52.6923 147° Southeast  Level Estimated
05:02PM -14.9460 -52.6321 147° Southeast  Level Estimated
05:03PM -15.0340 -52.5718 147° Southeast  Level Estimated
05:04PM -15.1220 -52.5115 147° Southeast  Level Estimated
05:05PM -15.2099 -52.4512 146° Southeast  Level Estimated
05:06PM -15.2978 -52.3908 146° Southeast  Level Estimated
05:07PM -15.3857 -52.3303 146° Southeast  Level Estimated
05:08PM -15.4736 -52.2698 146° Southeast  Level Estimated
05:09PM -15.5615 -52.2093 146° Southeast  Level Estimated
05:10PM -15.6494 -52.1487 146° Southeast  Level Estimated
05:11PM -15.7372 -52.0880 146° Southeast  Level Estimated
05:12PM -15.8250 -52.0273 146° Southeast  Level Estimated
05:13PM -15.9128 -51.9665 146° Southeast  Level Estimated
05:14PM -16.0006 -51.9057 146° Southeast  Level Estimated
05:15PM -16.0884 -51.8449 146° Southeast  Level Estimated
05:16PM -16.1761 -51.7840 146° Southeast  Level Estimated
05:17PM -16.2639 -51.7230 146° Southeast  Level Estimated
05:18PM -16.3516 -51.6619 146° Southeast  Level Estimated
05:19PM -16.4393 -51.6009 146° Southeast  Level Estimated
05:20PM -16.5270 -51.5397 146° Southeast  Level Estimated
05:20PM -18.3740 -50.3820 146° Southeast 443 510 39,000  Level FlightAware
05:20PM -18.4240 -50.3390 141° Southeast 443 510 39,000  Level FlightAware
05:21PM -16.6147 -51.4785 146° Southeast  Level Estimated
05:21PM -18.5370 -50.2480 143° Southeast 444 511 39,000  Level FlightAware
05:22PM -18.6100 -50.1860 141° Southeast 444 511 39,000  Level FlightAware
05:23PM -18.7060 -50.1100 143° Southeast 448 516 39,000  Level FlightAware
05:23PM -18.7490 -50.0740 142° Southeast 448 516 39,000  Level FlightAware
05:25PM -18.8410 -49.9970 142° Southeast 448 516 39,000  Level FlightAware
05:25PM -18.9270 -49.9280 143° Southeast 443 510 39,000  Level FlightAware
05:26PM -19.0090 -49.8610 142° Southeast 442 509 39,000  Level FlightAware
05:27PM -19.1000 -49.7850 142° Southeast 441 507 39,000  Level FlightAware
05:28PM -19.1620 -49.7340 142° Southeast 440 506 39,000  Level FlightAware
05:29PM -19.2510 -49.6610 142° Southeast 440 506 39,000  Level FlightAware
05:30PM -19.3500 -49.5780 142° Southeast 442 509 39,000  Level FlightAware
05:30PM -19.3900 -49.5450 142° Southeast 442 509 39,000  Level FlightAware
05:31PM -19.5010 -49.4530 142° Southeast 444 511 39,000  Level FlightAware
05:32PM -19.5930 -49.3700 140° Southeast 448 516 39,000  Level FlightAware
05:33PM -19.6630 -49.2740 128° Southeast 449 517 39,000  Level FlightAware
05:34PM -19.7010 -49.2240 129° Southeast 442 509 39,000  Level FlightAware
05:35PM -19.7920 -49.1500 143° Southeast 440 506 39,000  Level FlightAware
05:35PM -19.8480 -49.1050 143° Southeast 439 505 39,000  Level FlightAware
05:36PM -19.9010 -49.0620 143° Southeast 440 506 39,000  Level FlightAware
05:36PM -19.9780 -49.0000 143° Southeast 440 506 39,000  Level FlightAware
05:37PM -20.0230 -48.9640 143° Southeast 440 506 39,000  Level FlightAware
05:38PM -20.0950 -48.9050 142° Southeast 442 509 39,000  Level FlightAware
05:38PM -20.1640 -48.8490 143° Southeast 442 509 39,000  Level FlightAware
05:39PM -20.2170 -48.8060 143° Southeast 442 509 39,000  Level FlightAware
05:39PM -20.2650 -48.7670 143° Southeast 442 509 39,000  Level FlightAware
05:40PM -20.3490 -48.6980 142° Southeast 442 509 39,000  Level FlightAware
05:41PM -20.4450 -48.6200 143° Southeast 445 512 39,000  Level FlightAware
05:42PM -20.5230 -48.5560 142° Southeast 445 512 39,000  Level FlightAware
05:43PM -20.5750 -48.5130 142° Southeast 444 511 39,000  Level FlightAware
05:43PM -20.6350 -48.4650 143° Southeast 443 510 39,000  Level FlightAware
05:44PM -20.6990 -48.4120 142° Southeast 445 512 39,000  Level FlightAware
05:45PM -20.8030 -48.3260 142° Southeast 445 512 39,000  Level FlightAware
05:46PM -20.8900 -48.2550 143° Southeast 446 513 39,000  Level FlightAware
05:47PM -20.9700 -48.1890 142° Southeast 448 516 39,000  Level FlightAware
05:47PM -21.0200 -48.1480 143° Southeast 448 516 39,000  Level FlightAware
05:48PM -21.1210 -48.0640 142° Southeast 448 516 39,000  Level FlightAware
05:49PM -21.1950 -48.0030 142° Southeast 446 513 39,000  Level FlightAware
05:50PM -21.2840 -47.9360 145° Southeast 440 506 39,000  Level FlightAware
05:51PM -21.3870 -47.8700 149° Southeast 441 507 39,000  Level FlightAware
05:52PM -21.4770 -47.8120 149° Southeast 443 510 39,000  Level FlightAware
05:52PM -21.5250 -47.7810 149° Southeast 442 509 39,000  Level FlightAware
05:53PM -21.6380 -47.7090 149° Southeast 442 509 39,000 -569 Level FlightAware
05:54PM -21.7300 -47.6490 149° Southeast 455 524 37,900 -2,222 Descending FlightAware
05:55PM -21.8330 -47.5830 149° Southeast 466 536 35,000 -2,965 Descending FlightAware
05:55PM -21.8860 -47.5480 149° Southeast 468 539 33,700 -2,775 Descending FlightAware
05:56PM -21.9820 -47.4860 149° Southeast 473 544 31,300 -2,541 Descending FlightAware
05:57PM -22.0460 -47.4440 149° Southeast 471 542 30,100 -2,023 Descending FlightAware
05:58PM -22.1430 -47.3810 149° Southeast 465 535 28,400 -2,036 Descending FlightAware
05:59PM -22.2540 -47.3090 149° Southeast 462 532 26,300 -2,041 Descending FlightAware
05:59PM -22.3180 -47.2670 149° Southeast 458 527 25,100 -2,000 Descending FlightAware
06:00PM -22.4220 -47.1990 149° Southeast 449 517 23,200 -1,964 Descending FlightAware
06:01PM -22.5150 -47.1380 149° Southeast 430 495 21,500 -1,902 Descending FlightAware
06:02PM -22.5630 -47.1070 149° Southeast 422 486 20,600 -1,929 Descending FlightAware
06:02PM -22.6600 -47.0620 157° South 407 468 18,800 -1,950 Descending FlightAware
06:03PM -22.7050 -47.0440 160° South 402 463 18,000 -1,900 Descending FlightAware
06:03PM -22.7670 -47.0180 159° South 403 464 16,900 -1,538 Descending FlightAware
06:04PM -22.8400 -46.9870 159° South 395 455 16,000 -500 Descending FlightAware
06:05PM -22.9530 -46.9400 159° South 397 457 16,000  Level FlightAware
06:06PM -23.0280 -46.9080 159° South 397 457 16,000 -1,467 Level FlightAware
06:07PM -23.1050 -46.8760 159° South 376 433 13,800 -3,209 Descending FlightAware
06:07PM -23.1690 -46.8490 159° South 357 411 11,400 -2,735 Descending FlightAware
06:08PM -23.2100 -46.8320 159° South 322 371 10,700 -1,875 Descending FlightAware
06:09PM -23.2570 -46.8110 158° South 298 343 9,400 -2,344 Descending FlightAware
06:09PM -23.2930 -46.7960 159° South 296 341 8,200 -2,333 Descending FlightAware
06:09PM -23.3260 -46.7820 159° South 283 326 7,300 -1,440 Descending FlightAware
06:10PM -23.3530 -46.7710 159° South 260 299 7,000 -625 Descending FlightAware
06:10PM -23.3780 -46.7560 151° Southeast 242 278 6,800 -600 Descending FlightAware
06:10PM -23.3910 -46.7450 142° Southeast 230 265 6,600 -655 Descending FlightAware
06:11PM -23.4190 -46.7180 138° Southeast 201 231 6,200 -814 Descending FlightAware
06:11PM -23.4340 -46.7040 139° Southeast 200 230 5,800 -1,050 Descending FlightAware
06:12PM -23.4480 -46.6900 137° Southeast 198 228 5,500 -1,000 Descending FlightAware
06:12PM -23.4650 -46.6540 117° Southeast 191 220 4,800 -676 Descending FlightAware
06:13PM -23.4750 -46.6280 113° Southeast 175 201 4,700 -300 Descending FlightAware
06:13PM -23.4700 -46.6030 78° East 174 200 4,500 -656 Descending FlightAware
06:14PM -23.4620 -46.5740 73° East 168 193 4,000 -873 Descending FlightAware
06:14PM -23.4580 -46.5590 74° East 157 181 3,700 -933 Descending FlightAware
06:15PM -23.4530 -46.5390 75° East 149 171 3,300 -873 Descending FlightAware
06:15PM -23.4470 -46.5170 73° East 147 169 2,900 -643 Descending FlightAware
06:16PM -23.4420 -46.4990 73° East 142 163 2,700 -462 Descending FlightAware
06:16PM -23.4360 -46.4770 73° East 135 155 -4,629 Descending FlightAware
06:16PM -23.4340 -46.4700 73° East 90 104  Level FlightAware
06:17PM -23.4310 -46.4600 72° East 90 104  Level FlightAware